Hourly Data Report for September 13, 2017

All times are specified in Local Standard Time (LST). Add 1 hour to adjust for Daylight Saving Time where and when it is observed.

ALERT CLIMATE
NUNAVUT

82°30'00.000" N
62°20'00.000" W
65.40 m
2400305
71355
ZLT

Download Data

Hourly Data (September 2017)
Hourly Data Report for September 13, 2017
Temp Definition
°C
Dew Point Temp Definition
°C
Rel Hum Definition
%
Wind Dir Definition
10's deg

Wind Spd Definition
km/h
Visibility Definition
km
Stn Press Definition
kPa
Hmdx Definition


Wind Chill Definition


Weather Definition


TIME
00:00 -11.3 -12.6 90 2 1   101.02   -12 LegendNANA
01:00 -11.7 -12.9 91 10 3   101.03   -14 LegendNANA
02:00 -11.7 -12.7 92 12 2   101.03   -13 LegendNANA
03:00 -11.2 -12.7 89 13 3   101.05   -13 LegendNANA
04:00 -11.4 -13.0 88 9 2   101.07   -13 LegendNANA
05:00 -11.6 -12.4 94 9 2   101.09   -13 LegendNANA
06:00 -11.5 -12.5 93 20 1   101.10   -12 LegendNANA
07:00 -11.6 -12.8 91 8 6   101.10   -15 LegendNANA
08:00 -11.4 -13.2 87 9 3   101.11   -13 LegendNANA
09:00 -10.9 -13.0 85   0   101.12     LegendNANA
10:00 -11.2 -13.7 82 29 5   101.11   -14 LegendNANA
11:00 -11.0 -12.7 87 5 3   101.15   -13 LegendNANA
12:00 -10.1 -12.5 82 0 1   101.17   -11 LegendNANA
13:00 -11.3 -12.8 89 28 6   101.21   -15 LegendNANA
14:00 -11.4 -12.7 90 28 6   101.23   -15 LegendNANA
15:00 -10.6 -12.4 86 28 8   101.26   -15 LegendNANA
16:00 -9.9 -11.6 87 30 7   101.28   -14 LegendNANA
17:00 -9.4 -11.4 86 29 9   101.29   -14 LegendNANA
18:00 -8.7 -10.9 84 30 5   101.30   -11 LegendNANA
19:00 -8.3 -10.3 85 10 5   101.31   -11 LegendNANA
20:00 -8.6 -10.7 85 10 3   101.31   -10 LegendNANA
21:00 -8.3 -11.5 77 7 6   101.33   -12 LegendNANA
22:00 -8.3 -10.6 83 11 3   101.35   -10 LegendNANA
23:00 -8.2 -10.2 86 26 2   101.35   -9 LegendNANA

Notes on Data Quality.

Legend

  • E = Estimated
  • M = Missing
  • NA = Not Available
  • ‡ = Partner data that is not subject to review by the National Climate Archives
Date modified: